FLIWT25 WBKK-WIII

Flight info

Callsign FLIWT25
Flight time N/A
Altitude 36000
Route PIMEP2F PIMEP P648 AMBOY
Aircraft A320/M-SDE2E3FGHIRWY/LB1

Departure

Time N/A
Airport Kota Kinabalu International Airport (WBKK)

Arrival

Time 2026-04-30 04:46
Airport Soekarno-Hatta International Airport (WIII)
Time Latitude Longitude Altitude Speed Heading
2026-04-30 03:23 0.69877 111.95963 35925 ft 456 kts 217°
2026-04-30 03:23 0.67370 111.94022 35930 ft 456 kts 217°
2026-04-30 03:23 0.62359 111.90138 35922 ft 456 kts 217°
2026-04-30 03:24 0.57354 111.86241 35929 ft 456 kts 217°
2026-04-30 03:24 0.52380 111.82379 35924 ft 456 kts 217°
2026-04-30 03:25 0.47358 111.78491 35926 ft 456 kts 216°
2026-04-30 03:25 0.42344 111.74611 35931 ft 456 kts 217°
2026-04-30 03:26 0.37328 111.70723 35932 ft 456 kts 217°
2026-04-30 03:26 0.33133 111.67460 35923 ft 456 kts 217°
2026-04-30 03:27 0.28157 111.63591 35923 ft 456 kts 217°
2026-04-30 03:27 0.22298 111.59045 35924 ft 456 kts 217°
2026-04-30 03:28 0.18129 111.55816 35927 ft 456 kts 217°
2026-04-30 03:28 0.13117 111.51934 35930 ft 456 kts 217°
2026-04-30 03:29 0.08105 111.48038 35933 ft 456 kts 217°
2026-04-30 03:29 0.03098 111.44143 35936 ft 456 kts 217°
2026-04-30 03:30 -0.01918 111.40258 35935 ft 456 kts 217°
2026-04-30 03:30 -0.06930 111.36378 35927 ft 456 kts 217°
2026-04-30 03:31 -0.11939 111.32490 35933 ft 456 kts 217°
2026-04-30 03:31 -0.16946 111.28600 35937 ft 456 kts 217°
2026-04-30 03:32 -0.21948 111.24720 35933 ft 456 kts 217°
2026-04-30 03:32 -0.26957 111.20836 35934 ft 456 kts 217°
2026-04-30 03:33 -0.31927 111.16973 35940 ft 455 kts 217°
2026-04-30 03:33 -0.36922 111.13092 35947 ft 455 kts 217°
2026-04-30 03:34 -0.41929 111.09206 35935 ft 456 kts 217°
2026-04-30 03:34 -0.46930 111.05305 35937 ft 456 kts 217°
2026-04-30 03:35 -0.51925 111.01405 35943 ft 456 kts 217°
2026-04-30 03:35 -0.56926 110.97510 35941 ft 456 kts 217°
2026-04-30 03:36 -0.61922 110.93616 35929 ft 456 kts 217°
2026-04-30 03:36 -0.66924 110.89716 35935 ft 456 kts 217°
2026-04-30 03:37 -0.71918 110.85822 35935 ft 456 kts 217°
2026-04-30 03:37 -0.76912 110.81940 35945 ft 455 kts 217°
2026-04-30 03:38 -0.81893 110.78057 35947 ft 454 kts 217°
2026-04-30 03:38 -0.86871 110.74164 35942 ft 453 kts 217°
2026-04-30 03:39 -0.91840 110.70286 35935 ft 453 kts 217°
2026-04-30 03:39 -0.96802 110.66416 35932 ft 453 kts 217°
2026-04-30 03:40 -1.01766 110.62537 35927 ft 452 kts 217°
2026-04-30 03:40 -1.06726 110.58669 35925 ft 452 kts 217°
2026-04-30 03:41 -1.11692 110.54805 35909 ft 453 kts 216°
2026-04-30 03:41 -1.16668 110.50928 35911 ft 454 kts 216°
2026-04-30 03:42 -1.21639 110.47042 35910 ft 454 kts 216°
2026-04-30 03:42 -1.26585 110.43176 35913 ft 454 kts 216°
2026-04-30 03:43 -1.31602 110.39281 35914 ft 454 kts 216°
2026-04-30 03:43 -1.36598 110.35488 35914 ft 454 kts 215°
2026-04-30 03:44 -1.41642 110.31688 35914 ft 454 kts 215°
2026-04-30 03:44 -1.46677 110.27883 35928 ft 454 kts 215°
2026-04-30 03:45 -1.51706 110.24058 35928 ft 454 kts 215°
2026-04-30 03:45 -1.56720 110.20235 35925 ft 453 kts 215°
2026-04-30 03:46 -1.61739 110.16421 35928 ft 453 kts 215°
2026-04-30 03:46 -1.66761 110.12611 35934 ft 453 kts 215°
2026-04-30 03:47 -1.71743 110.08755 35934 ft 453 kts 216°
2026-04-30 03:47 -1.76634 110.04773 35933 ft 453 kts 217°
2026-04-30 03:48 -1.81504 110.00774 35927 ft 453 kts 217°
2026-04-30 03:48 -1.86403 109.96798 35920 ft 454 kts 217°
2026-04-30 03:49 -1.91320 109.92839 35925 ft 454 kts 217°
2026-04-30 03:49 -1.96236 109.88876 35925 ft 454 kts 217°
2026-04-30 03:50 -2.01121 109.84931 35921 ft 454 kts 217°
2026-04-30 03:50 -2.06037 109.80957 35925 ft 454 kts 217°
2026-04-30 03:51 -2.10947 109.76988 35931 ft 455 kts 217°
2026-04-30 03:51 -2.15867 109.73011 35931 ft 455 kts 217°
2026-04-30 03:52 -2.20791 109.69032 35932 ft 455 kts 217°
2026-04-30 03:52 -2.25712 109.65057 35931 ft 455 kts 217°
2026-04-30 03:53 -2.30635 109.61075 35928 ft 455 kts 217°
2026-04-30 03:53 -2.35552 109.57099 35933 ft 455 kts 217°
2026-04-30 03:54 -2.40474 109.53119 35933 ft 455 kts 217°
2026-04-30 03:54 -2.45395 109.49134 35929 ft 455 kts 217°
2026-04-30 03:55 -2.50316 109.45158 35921 ft 455 kts 217°
2026-04-30 03:55 -2.55214 109.41202 35919 ft 456 kts 217°
2026-04-30 03:56 -2.60180 109.37183 35926 ft 456 kts 217°
2026-04-30 03:56 -2.65085 109.33223 35931 ft 456 kts 217°
2026-04-30 03:57 -2.70024 109.29233 35929 ft 457 kts 217°
2026-04-30 03:57 -2.74962 109.25234 35926 ft 457 kts 217°
2026-04-30 03:58 -2.79899 109.21241 35935 ft 457 kts 217°
2026-04-30 03:58 -2.84846 109.17235 35927 ft 457 kts 217°
2026-04-30 03:59 -2.89780 109.13236 35925 ft 457 kts 217°
2026-04-30 03:59 -2.94774 109.09298 35919 ft 457 kts 216°
2026-04-30 04:00 -2.98993 109.06036 35924 ft 458 kts 216°
2026-04-30 04:00 -3.04849 109.01501 35925 ft 458 kts 216°
2026-04-30 04:01 -3.09876 108.97583 35929 ft 458 kts 217°
2026-04-30 04:01 -3.14901 108.93652 35928 ft 458 kts 217°
2026-04-30 04:02 -3.19928 108.89715 35936 ft 458 kts 217°
2026-04-30 04:02 -3.24952 108.85785 35935 ft 458 kts 217°
2026-04-30 04:03 -3.29977 108.81861 35933 ft 458 kts 217°
2026-04-30 04:03 -3.35007 108.77934 35935 ft 458 kts 217°
2026-04-30 04:04 -3.40041 108.74004 35929 ft 459 kts 216°
2026-04-30 04:04 -3.45079 108.70074 35920 ft 460 kts 216°
2026-04-30 04:05 -3.50119 108.66136 35915 ft 460 kts 216°
2026-04-30 04:05 -3.55168 108.62189 35920 ft 460 kts 216°
2026-04-30 04:06 -3.60182 108.58269 35932 ft 460 kts 216°
2026-04-30 04:06 -3.65225 108.54323 35929 ft 460 kts 217°
2026-04-30 04:07 -3.70273 108.50374 35926 ft 461 kts 217°
2026-04-30 04:08 -3.77023 108.45099 35920 ft 461 kts 217°
2026-04-30 04:08 -3.82897 108.40495 35922 ft 461 kts 217°
2026-04-30 04:09 -3.87953 108.36535 35921 ft 461 kts 217°
2026-04-30 04:09 -3.93012 108.32573 35933 ft 462 kts 217°
2026-04-30 04:10 -3.98074 108.28613 35923 ft 462 kts 217°
2026-04-30 04:10 -4.03142 108.24658 35935 ft 462 kts 217°
2026-04-30 04:11 -4.08197 108.20702 35936 ft 462 kts 217°
2026-04-30 04:11 -4.13304 108.16790 35922 ft 461 kts 211°
2026-04-30 04:12 -4.18915 108.13732 35923 ft 459 kts 206°
2026-04-30 04:12 -4.23624 108.11266 35935 ft 459 kts 206°
2026-04-30 04:13 -4.30239 108.07793 35936 ft 460 kts 206°
2026-04-30 04:13 -4.34951 108.05320 35935 ft 460 kts 206°
2026-04-30 04:14 -4.40614 108.02334 35926 ft 460 kts 206°
2026-04-30 04:14 -4.47198 107.98865 35925 ft 461 kts 205°
2026-04-30 04:15 -4.52875 107.95883 35926 ft 461 kts 206°
2026-04-30 04:15 -4.57638 107.93372 35935 ft 461 kts 206°
2026-04-30 04:16 -4.63272 107.90400 35935 ft 461 kts 206°
2026-04-30 04:16 -4.68994 107.87390 35936 ft 461 kts 206°
2026-04-30 04:17 -4.74676 107.84397 35945 ft 461 kts 206°
2026-04-30 04:17 -4.80305 107.81432 35952 ft 459 kts 206°
2026-04-30 04:18 -4.85951 107.78459 35953 ft 458 kts 206°
2026-04-30 04:18 -4.91600 107.75486 35951 ft 457 kts 206°
2026-04-30 04:19 -4.97230 107.72522 35747 ft 458 kts 205°
2026-04-30 04:19 -5.00049 107.71037 35506 ft 456 kts 205°
2026-04-30 04:19 -5.02857 107.69559 35276 ft 455 kts 205°
2026-04-30 04:19 -5.05657 107.68084 35045 ft 454 kts 205°
2026-04-30 04:20 -5.08444 107.66613 34811 ft 452 kts 206°
2026-04-30 04:20 -5.11219 107.65147 34580 ft 450 kts 206°
2026-04-30 04:20 -5.13982 107.63687 34354 ft 448 kts 206°
2026-04-30 04:20 -5.16624 107.62029 34065 ft 447 kts 216°
2026-04-30 04:21 -5.18909 107.59917 33494 ft 448 kts 228°
2026-04-30 04:21 -5.20743 107.57399 32966 ft 447 kts 239°
2026-04-30 04:21 -5.22085 107.54591 32444 ft 446 kts 248°
2026-04-30 04:21 -5.23206 107.51708 31914 ft 444 kts 248°
2026-04-30 04:22 -5.24337 107.48827 31389 ft 442 kts 248°
2026-04-30 04:22 -5.25459 107.45980 30880 ft 441 kts 248°
2026-04-30 04:22 -5.26591 107.43115 30375 ft 439 kts 247°
2026-04-30 04:22 -5.27702 107.40310 29857 ft 438 kts 247°
2026-04-30 04:23 -5.28821 107.37478 29345 ft 435 kts 248°
2026-04-30 04:23 -5.29928 107.34670 28863 ft 431 kts 248°
2026-04-30 04:23 -5.31025 107.31887 28406 ft 427 kts 248°
2026-04-30 04:23 -5.32112 107.29128 27952 ft 424 kts 248°
2026-04-30 04:24 -5.33191 107.26378 27476 ft 421 kts 248°
2026-04-30 04:24 -5.34260 107.23655 27013 ft 419 kts 248°
2026-04-30 04:24 -5.35323 107.20946 26565 ft 417 kts 248°
2026-04-30 04:24 -5.36383 107.18243 26093 ft 415 kts 248°
2026-04-30 04:25 -5.37433 107.15555 25623 ft 413 kts 248°
2026-04-30 04:25 -5.38478 107.12873 25138 ft 412 kts 248°
2026-04-30 04:25 -5.39520 107.10200 24656 ft 411 kts 248°
2026-04-30 04:25 -5.40563 107.07530 24153 ft 411 kts 248°
2026-04-30 04:26 -5.41606 107.04861 23654 ft 411 kts 248°
2026-04-30 04:26 -5.42644 107.02195 23092 ft 411 kts 248°
2026-04-30 04:26 -5.43683 106.99525 22590 ft 408 kts 248°
2026-04-30 04:26 -5.44712 106.96884 22102 ft 406 kts 248°
2026-04-30 04:27 -5.45786 106.94278 21614 ft 403 kts 242°
2026-04-30 04:27 -5.47305 106.91926 21141 ft 400 kts 229°
2026-04-30 04:27 -5.49279 106.89996 20741 ft 393 kts 216°
2026-04-30 04:27 -5.51540 106.88597 20637 ft 379 kts 203°
2026-04-30 04:28 -5.53947 106.87622 20405 ft 369 kts 199°
2026-04-30 04:28 -5.56330 106.86704 20058 ft 365 kts 199°
2026-04-30 04:28 -5.58681 106.85798 19581 ft 360 kts 199°
2026-04-30 04:28 -5.61003 106.84904 18908 ft 357 kts 199°
2026-04-30 04:29 -5.63320 106.84013 18265 ft 354 kts 199°
2026-04-30 04:29 -5.65616 106.83130 17549 ft 351 kts 199°
2026-04-30 04:29 -5.67844 106.82271 16876 ft 347 kts 199°
2026-04-30 04:29 -5.70112 106.81393 16285 ft 341 kts 199°
2026-04-30 04:30 -5.72309 106.80543 15831 ft 337 kts 199°
2026-04-30 04:30 -5.74450 106.79718 15404 ft 334 kts 199°
2026-04-30 04:30 -5.76631 106.78879 14959 ft 336 kts 199°
2026-04-30 04:30 -5.78802 106.78041 14670 ft 332 kts 200°
2026-04-30 04:31 -5.80946 106.77212 14334 ft 331 kts 200°
2026-04-30 04:31 -5.83093 106.76375 14001 ft 329 kts 201°
2026-04-30 04:31 -5.85072 106.75256 13689 ft 328 kts 216°
2026-04-30 04:31 -5.86730 106.73685 13299 ft 326 kts 230°
2026-04-30 04:32 -5.87951 106.71797 12644 ft 323 kts 244°
2026-04-30 04:32 -5.88797 106.69711 11978 ft 320 kts 248°
2026-04-30 04:32 -5.89615 106.67635 11321 ft 318 kts 248°
2026-04-30 04:32 -5.90433 106.65583 10677 ft 316 kts 248°
2026-04-30 04:33 -5.91251 106.63545 10195 ft 308 kts 248°
2026-04-30 04:33 -5.92021 106.61622 9932 ft 295 kts 248°
2026-04-30 04:33 -5.92790 106.59699 10001 ft 295 kts 248°
2026-04-30 04:33 -5.93554 106.57791 9988 ft 295 kts 248°
2026-04-30 04:34 -5.94329 106.55871 9714 ft 295 kts 248°
2026-04-30 04:34 -5.95100 106.53979 9459 ft 292 kts 248°
2026-04-30 04:34 -5.95870 106.52098 9219 ft 290 kts 248°
2026-04-30 04:34 -5.96639 106.50223 8994 ft 289 kts 248°
2026-04-30 04:35 -5.97403 106.48357 8762 ft 289 kts 248°
2026-04-30 04:35 -5.98164 106.46491 8531 ft 289 kts 248°
2026-04-30 04:35 -5.98924 106.44624 8301 ft 287 kts 248°
2026-04-30 04:35 -5.99677 106.42774 8074 ft 285 kts 248°
2026-04-30 04:36 -6.00426 106.40936 7840 ft 284 kts 248°
2026-04-30 04:36 -6.01173 106.39099 7624 ft 283 kts 248°
2026-04-30 04:36 -6.01918 106.37267 7393 ft 283 kts 248°
2026-04-30 04:36 -6.02655 106.35461 7251 ft 274 kts 248°
2026-04-30 04:37 -6.03383 106.33742 7140 ft 261 kts 241°
2026-04-30 04:37 -6.04086 106.32796 7064 ft 253 kts 221°
2026-04-30 04:37 -6.06146 106.31802 6815 ft 247 kts 184°
2026-04-30 04:37 -6.07835 106.31938 6566 ft 243 kts 167°
2026-04-30 04:38 -6.09500 106.32236 6323 ft 243 kts 167°
2026-04-30 04:38 -6.11160 106.32534 6067 ft 242 kts 168°
2026-04-30 04:38 -6.12795 106.32824 5824 ft 241 kts 168°
2026-04-30 04:38 -6.14455 106.33120 5583 ft 239 kts 167°
2026-04-30 04:39 -6.16091 106.33411 5338 ft 238 kts 167°
2026-04-30 04:39 -6.17712 106.33698 5167 ft 236 kts 167°
2026-04-30 04:39 -6.19309 106.34008 5073 ft 236 kts 160°
2026-04-30 04:39 -6.20723 106.34790 4958 ft 232 kts 135°
2026-04-30 04:40 -6.21691 106.36060 4761 ft 229 kts 120°
2026-04-30 04:40 -6.22528 106.37417 4571 ft 227 kts 120°
2026-04-30 04:40 -6.23340 106.38775 4386 ft 226 kts 113°
2026-04-30 04:40 -6.23656 106.40294 4201 ft 223 kts 85°
2026-04-30 04:41 -6.23263 106.41786 4027 ft 223 kts 68°
2026-04-30 04:41 -6.22678 106.43236 3839 ft 225 kts 69°
2026-04-30 04:41 -6.22093 106.44687 3659 ft 223 kts 68°
2026-04-30 04:41 -6.21527 106.46105 3532 ft 222 kts 68°
2026-04-30 04:42 -6.20951 106.47550 3344 ft 223 kts 68°
2026-04-30 04:42 -6.20375 106.48999 3080 ft 222 kts 68°
2026-04-30 04:42 -6.19805 106.50431 2808 ft 219 kts 69°
2026-04-30 04:42 -6.19239 106.51851 2536 ft 218 kts 69°
2026-04-30 04:43 -6.18681 106.53254 2253 ft 214 kts 69°
2026-04-30 04:43 -6.18144 106.54601 1977 ft 201 kts 69°
2026-04-30 04:43 -6.17650 106.55843 1745 ft 182 kts 68°
2026-04-30 04:43 -6.17204 106.56961 1503 ft 164 kts 69°
2026-04-30 04:44 -6.16798 106.57980 1318 ft 150 kts 68°
2026-04-30 04:44 -6.16421 106.58927 1115 ft 142 kts 67°
2026-04-30 04:44 -6.16058 106.59840 952 ft 142 kts 68°
2026-04-30 04:44 -6.15694 106.60750 773 ft 139 kts 67°
2026-04-30 04:45 -6.15326 106.61665 609 ft 140 kts 66°
2026-04-30 04:45 -6.14964 106.62575 446 ft 140 kts 67°
2026-04-30 04:45 -6.14604 106.63476 267 ft 138 kts 68°
2026-04-30 04:45 -6.14254 106.64376 96 ft 139 kts 68°
2026-04-30 04:46 -6.13918 106.65209 42 ft 114 kts 69°
2026-04-30 04:46 -6.13688 106.65780 39 ft 64 kts 68°
2026-04-30 04:46 -6.13553 106.66114 39 ft 45 kts 64°
2026-04-30 04:46 -6.13388 106.66292 40 ft 22 kts 37°
2026-04-30 04:47 -6.13302 106.66295 37 ft 0 kts 336°
2026-04-30 04:47 -6.13301 106.66295 37 ft 0 kts 336°
2026-04-30 04:47 -6.13280 106.66304 39 ft 5 kts 58°
2026-04-30 04:47 -6.13273 106.66334 39 ft 4 kts 73°
2026-04-30 04:48 -6.13256 106.66379 39 ft 15 kts 68°
2026-04-30 04:48 -6.13214 106.66482 39 ft 17 kts 69°
2026-04-30 04:48 -6.13168 106.66600 39 ft 19 kts 68°
2026-04-30 04:48 -6.13116 106.66729 39 ft 20 kts 68°
2026-04-30 04:49 -6.13061 106.66864 39 ft 22 kts 68°
2026-04-30 04:49 -6.13004 106.67011 37 ft 23 kts 68°
2026-04-30 04:49 -6.12943 106.67163 39 ft 24 kts 68°
2026-04-30 04:49 -6.12882 106.67314 39 ft 25 kts 68°
2026-04-30 04:50 -6.12816 106.67475 37 ft 25 kts 59°
2026-04-30 04:50 -6.12724 106.67630 38 ft 26 kts 59°
2026-04-30 04:50 -6.12619 106.67781 38 ft 27 kts 45°
2026-04-30 04:50 -6.12454 106.67863 36 ft 27 kts
2026-04-30 04:51 -6.12269 106.67834 40 ft 27 kts 338°
2026-04-30 04:51 -6.12103 106.67769 49 ft 24 kts 339°
2026-04-30 04:51 -6.11955 106.67708 58 ft 22 kts 338°
2026-04-30 04:51 -6.11820 106.67655 62 ft 20 kts 338°
2026-04-30 04:52 -6.11683 106.67600 57 ft 25 kts 340°
2026-04-30 04:52 -6.11490 106.67524 36 ft 30 kts 338°
2026-04-30 04:52 -6.11292 106.67447 38 ft 31 kts 339°
2026-04-30 04:52 -6.11105 106.67356 36 ft 29 kts 311°
2026-04-30 04:53 -6.11113 106.67158 38 ft 30 kts 257°
2026-04-30 04:53 -6.11168 106.66951 38 ft 31 kts 247°
2026-04-30 04:53 -6.11282 106.66895 38 ft 20 kts 158°
2026-04-30 04:53 -6.11379 106.66955 38 ft 11 kts 99°
2026-04-30 04:54 -6.11357 106.67003 38 ft 0 kts 68°
2026-04-30 04:54 -6.11356 106.67004 38 ft 1 kts 66°
2026-04-30 04:54 -6.11354 106.67009 37 ft 0 kts 64°
2026-04-30 04:54 -6.11352 106.67013 36 ft 1 kts 66°
2026-04-30 04:55 -6.11352 106.67014 36 ft 0 kts 67°
2026-04-30 04:55 -6.11352 106.67013 36 ft 0 kts 68°